This is the latest recevied weather packets stored in our database for station/object K5GHS-1. If no packets are shown the sender has not sent any weather packets the latest 10 day(s).
| Time | Temp. | Humidity | Pressure | Rain* | Wind** | Luminosity | Snow |
|---|---|---|---|---|---|---|---|
| 1777819520 | 22.78° C | 48% | 1019.2 hPa | 0 mm | - | 390 W/m² | - |
| 1777819217 | 22.78° C | 50% | 1019.2 hPa | 0 mm | - | 347 W/m² | - |
| 1777818914 | 22.22° C | 49% | 1019.1 hPa | 0 mm | - | 351 W/m² | - |
| 1777818610 | 22.22° C | 49% | 1019.3 hPa | 0 mm | - | 329 W/m² | - |
| 1777818308 | 22.22° C | 48% | 1019.6 hPa | 0 mm | - | 312 W/m² | - |
| 1777818003 | 21.67° C | 50% | 1019.1 hPa | 0 mm | - | 291 W/m² | - |
| 1777817701 | 21.67° C | 52% | 1019.3 hPa | 0 mm | - | 289 W/m² | - |
| 1777817398 | 21.67° C | 52% | 1019.1 hPa | 0 mm | - | 242 W/m² | - |
| 1777817094 | 21.67° C | 54% | 1019.2 hPa | 0 mm | - | 235 W/m² | - |
| 1777816790 | 21.11° C | 54% | 1019.2 hPa | 0 mm | - | 229 W/m² | - |
| 1777816489 | 20.56° C | 54% | 1019.4 hPa | 0 mm | - | 215 W/m² | - |
| 1777816186 | 20.56° C | 57% | 1019.3 hPa | 0 mm | - | 198 W/m² | - |
| 1777815883 | 20.56° C | 55% | 1019 hPa | 0 mm | - | 176 W/m² | - |
| 1777815580 | 20° C | 58% | 1018.9 hPa | 0 mm | - | 155 W/m² | - |
| 1777815278 | 19.44° C | 58% | 1019.2 hPa | 0 mm | - | 149 W/m² | - |
| 1777814974 | 19.44° C | 59% | 1019.2 hPa | 0 mm | - | 135 W/m² | - |
| 1777814671 | 18.89° C | 60% | 1019.1 hPa | 0 mm | - | 125 W/m² | - |
| 1777814367 | 18.89° C | 61% | 1019 hPa | 0 mm | - | 116 W/m² | - |
| 1777814065 | 18.33° C | 62% | 1019 hPa | 0 mm | - | 116 W/m² | - |
| 1777813761 | 18.33° C | 64% | 1019.1 hPa | 0 mm | - | 105 W/m² | - |
| 1777813459 | 17.22° C | 65% | 1019 hPa | 0 mm | - | 89 W/m² | - |
| 1777813156 | 16.67° C | 66% | 1018.8 hPa | 0 mm | - | 76 W/m² | - |
| 1777812854 | 16.11° C | 68% | 1018.7 hPa | 0 mm | - | 56 W/m² | - |
| 1777812545 | 16.11° C | 69% | 1019.2 hPa | 0 mm | - | 29 W/m² | - |
| 1777812243 | 15.56° C | 70% | 1018.9 hPa | 0 mm | - | 27 W/m² | - |
* Rain latest hour (hover to see other rain measurements)
** Current wind speed in m/s (hover to see current wind gust speed)